TimeEDT,TemperatureF,Dew PointF,Humidity,Sea Level PressureIn,VisibilityMPH,Wind Direction,Wind SpeedMPH,Gust SpeedMPH,PrecipitationIn,Events,Conditions,WindDirDegrees,DateUTC
12:53 AM,53.1,52.0,96,30.21,10.0,Calm,Calm,-,N/A,,Clear,0,2012-10-05 04:53:00
1:53 AM,53.1,51.1,93,30.21,10.0,Calm,Calm,-,N/A,,Clear,0,2012-10-05 05:53:00
2:53 AM,51.1,51.1,100,30.21,8.0,Calm,Calm,-,N/A,,Partly Cloudy,0,2012-10-05 06:53:00
3:53 AM,51.1,50.0,96,30.20,4.0,Calm,Calm,-,N/A,,Mostly Cloudy,0,2012-10-05 07:53:00
4:35 AM,50.0,48.2,94,30.24,1.5,Calm,Calm,-,N/A,,Mostly Cloudy,0,2012-10-05 08:35:00
4:50 AM,51.8,50.0,94,30.24,0.1,Calm,Calm,-,N/A,Fog,Fog,0,2012-10-05 08:50:00
4:53 AM,50.0,48.9,96,30.19,0.1,Calm,Calm,-,N/A,Fog,Fog,0,2012-10-05 08:53:00
5:00 AM,48.2,48.2,100,30.24,0.2,Calm,Calm,-,N/A,Fog,Fog,0,2012-10-05 09:00:00
5:07 AM,48.2,48.2,100,30.24,0.1,Calm,Calm,-,N/A,Fog,Fog,0,2012-10-05 09:07:00
5:53 AM,51.1,51.1,100,30.20,0.1,Calm,Calm,-,N/A,Fog,Fog,0,2012-10-05 09:53:00
6:23 AM,51.8,51.8,100,30.25,0.2,Calm,Calm,-,N/A,Fog,Fog,0,2012-10-05 10:23:00
6:46 AM,51.8,51.8,100,30.25,0.1,Calm,Calm,-,N/A,Fog,Fog,0,2012-10-05 10:46:00
6:53 AM,51.1,50.0,96,30.20,0.1,Calm,Calm,-,N/A,Fog,Fog,0,2012-10-05 10:53:00
7:53 AM,50.0,50.0,100,30.21,0.1,Calm,Calm,-,N/A,Fog,Fog,0,2012-10-05 11:53:00
8:53 AM,52.0,51.1,97,30.22,0.1,Calm,Calm,-,N/A,Fog,Fog,0,2012-10-05 12:53:00
9:51 AM,53.6,53.6,100,30.26,0.2,Calm,Calm,-,N/A,Fog,Fog,0,2012-10-05 13:51:00
9:53 AM,54.0,54.0,100,30.22,1.5,Calm,Calm,-,N/A,,Overcast,0,2012-10-05 13:53:00
10:08 AM,55.4,53.6,94,30.25,3.0,Calm,Calm,-,N/A,,Scattered Clouds,0,2012-10-05 14:08:00
10:53 AM,62.1,55.9,80,30.19,10.0,Calm,Calm,-,N/A,,Clear,0,2012-10-05 14:53:00
11:53 AM,68.0,55.9,65,30.16,10.0,Calm,Calm,-,N/A,,Clear,0,2012-10-05 15:53:00
12:53 PM,72.0,54.0,53,30.13,10.0,Calm,Calm,-,N/A,,Partly Cloudy,0,2012-10-05 16:53:00
1:53 PM,73.9,55.0,52,30.09,10.0,Calm,Calm,-,N/A,,Partly Cloudy,0,2012-10-05 17:53:00
2:53 PM,75.9,53.1,45,30.06,10.0,Calm,Calm,-,N/A,,Scattered Clouds,0,2012-10-05 18:53:00
3:53 PM,75.9,55.0,48,30.04,10.0,West,6.9,-,N/A,,Scattered Clouds,270,2012-10-05 19:53:00
4:53 PM,75.9,53.1,45,30.01,10.0,Calm,Calm,-,N/A,,Partly Cloudy,0,2012-10-05 20:53:00
5:53 PM,75.0,55.0,50,30.01,10.0,West,6.9,-,N/A,,Partly Cloudy,270,2012-10-05 21:53:00
6:53 PM,71.1,53.1,53,30.01,10.0,West,6.9,-,N/A,,Partly Cloudy,280,2012-10-05 22:53:00
7:53 PM,63.0,55.0,75,30.01,10.0,Calm,Calm,-,N/A,,Partly Cloudy,0,2012-10-05 23:53:00
8:53 PM,61.0,55.0,81,30.01,10.0,Calm,Calm,-,N/A,,Clear,0,2012-10-06 00:53:00
9:53 PM,57.9,54.0,87,30.02,9.0,Calm,Calm,-,N/A,,Partly Cloudy,0,2012-10-06 01:53:00
10:53 PM,57.9,55.0,90,30.01,9.0,Calm,Calm,-,N/A,,Mostly Cloudy,0,2012-10-06 02:53:00
11:53 PM,57.0,55.0,93,30.00,9.0,Calm,Calm,-,N/A,,Mostly Cloudy,0,2012-10-06 03:53:00